STARLINK-4179 (53275 NORAD) Tracking and Keplerian Element Data

This shows tracking and keplerian element data for the satellite.

Feedback or suggestion? Click here.




ElementValue
Catalog53275
NameSTARLINK-4179
Epoch Orbit130
Epoch Day269.91667824
Epoch Year2022
RAAN84.8199
Inclination53.2171
Eccentricity0.0001232
Argument of Perigee61.6721
Mean Anonmoly10.8752
Mean Motion15.63770671
Decay Rate-0.01042139
L11 53275U 22086AK 22269.91667824 -.01042139 00000+0 -12182-1 0 9990
L22 53275 53.2171 84.8199 0001232 61.6721 10.8752 15.63770671 1303

Live tracking and technical data element details for STARLINK-4179 (NORAD 53275). STARLINK-4179 can be tracked NOW for your location showing map with azimuth and elevation plus other details from your city location.

Track the satellite on the map from your city or location and see movement details for azimuth, elevation, latitude, longitude, range, height, and movement on the map or in text.







IsCatalogInMostPopularTable: catalog: 53275, numindb: 3
Update: records affected: 1



GetName: 53275 STARLINK-4179

Hit Count: updated at: Wed, 05 Oct 2022 08:18:56 GMT